FW6365 Weather Reports


time (UTC)temp
C
wind
direction
speed
KPH
gust
KPH
rain 1hr
cm
rain 24hr
cm
rain mn
cm
humidity
%
barometer
mb
20260504040526 18 21 0.0 3.2 0.00 0.00 0.00 71 1009.4
20260504040100 18 18 0.0 1.6 0.00 0.00 0.00 71 1009.3
20260504035526 18 18 0.0 3.2 0.00 0.00 0.00 70 1009.1
20260504035025 19 18 0.0 3.2 0.00 0.00 0.00 68 1009.0
20260504034541 20 25 0.0 1.6 0.00 0.00 0.00 65 1008.9
20260504034025 20 34 0.0 1.6 0.00 0.00 0.00 63 1009.0
20260504033525 21 34 0.0 1.6 0.00 0.00 0.00 62 1008.9
20260504033040 21 34 0.0 3.2 0.00 0.00 0.00 61 1008.9
20260504032528 22 39 0.0 3.2 0.00 0.00 0.00 58 1008.8
20260504032042 22 33 0.0 1.6 0.00 0.00 0.00 57 1008.7
20260504031540 23 33 0.0 1.6 0.00 0.00 0.00 55 1008.8
20260504031027 23 0 0.0 1.6 0.00 0.00 0.00 54 1008.8
20260504030528 25 33 0.0 3.2 0.00 0.00 0.00 50 1008.7
20260504030038 25 0 0.0 6.4 0.00 0.00 0.00 49 1008.7
20260504025526 26 33 1.6 6.4 0.00 0.00 0.00 46 1008.7
20260504025026 26 337 1.6 6.4 0.00 0.00 0.00 45 1008.6
20260504024542 27 18 1.6 9.7 0.00 0.00 0.00 43 1008.6
20260504024030 27 20 3.2 11.3 0.00 0.00 0.00 41 1008.6
20260504023526 27 24 4.8 12.9 0.00 0.00 0.00 41 1008.6
20260504023045 27 355 6.4 16.1 0.00 0.00 0.00 40 1008.5
20260504022527 27 348 8.0 16.1 0.00 0.00 0.00 40 1008.6
20260504022025 28 40 4.8 14.5 0.00 0.00 0.00 39 1008.6
20260504021541 28 10 3.2 12.9 0.00 0.00 0.00 40 1008.5
20260504021025 28 31 3.2 9.7 0.00 0.00 0.00 38 1008.6
20260504020525 28 19 3.2 9.7 0.00 0.00 0.00 39 1008.6
20260504020040 28 336 3.2 17.7 0.00 0.00 0.00 39 1008.6
20260504015525 28 35 4.8 17.7 0.00 0.00 0.00 39 1008.5
20260504015025 28 28 8.0 19.3 0.00 0.00 0.00 37 1008.6
20260504014542 28 5 4.8 19.3 0.00 0.00 0.00 39 1008.7
20260504014025 28 18 8.0 16.1 0.00 0.00 0.00 37 1008.6
20260504013526 28 24 8.0 14.5 0.00 0.00 0.00 37 1008.6
20260504013042 29 14 6.4 17.7 0.00 0.00 0.00 36 1008.6
20260504012529 29 327 6.4 17.7 0.00 0.00 0.00 35 1008.6
20260504012026 29 51 9.7 17.7 0.00 0.00 0.00 36 1008.6
20260504011542 30 19 6.4 14.5 0.00 0.00 0.00 36 1008.6
20260504011025 30 71 1.6 9.7 0.00 0.00 0.00 36 1008.8
20260504010525 30 122 3.2 11.3 0.00 0.00 0.00 36 1008.8
20260504010049 29 127 4.8 16.1 0.00 0.00 0.00 38 1008.9
20260504005526 29 352 8.0 16.1 0.00 0.00 0.00 37 1008.9
20260504005024 30 10 3.2 14.5 0.00 0.00 0.00 36 1009.0
20260504004545 29 296 3.2 14.5 0.00 0.00 0.00 34 1009.0
20260504004025 29 9 6.4 14.5 0.00 0.00 0.00 36 1009.1
20260504003529 29 337 4.8 12.9 0.00 0.00 0.00 37 1009.0
20260504003040 29 338 3.2 16.1 0.00 0.00 0.00 40 1009.2
20260504002525 29 5 8.0 17.7 0.00 0.00 0.00 35 1009.3
20260504002026 29 35 6.4 17.7 0.00 0.00 0.00 37 1009.4
20260504001555 29 351 8.0 16.1 0.00 0.00 0.00 34 1009.4
20260504001025 30 350 4.8 14.5 0.00 0.00 0.00 37 1009.5
20260504000524 30 89 3.2 17.7 0.00 0.00 0.00 34 1009.5
20260504000042 30 325 4.8 17.7 0.00 0.00 0.00 36 1009.6
20260503235525 30 324 1.6 14.5 0.00 0.00 0.00 41 1009.5
20260503235027 29 342 4.8 14.5 0.00 0.00 0.00 37 1009.6
20260503234543 29 312 3.2 19.3 0.00 0.00 0.00 38 1009.5
20260503234025 29 96 6.4 19.3 0.00 0.00 0.00 40 1009.5
20260503233525 29 22 11.3 19.3 0.00 0.00 0.00 39 1009.6
20260503233043 29 349 1.6 16.1 0.00 0.00 0.00 39 1009.7
20260503232528 29 37 6.4 16.1 0.00 0.00 0.00 37 1009.8
20260503232025 29 342 8.0 16.1 0.00 0.00 0.00 39 1009.8
20260503231539 29 72 3.2 16.1 0.00 0.00 0.00 41 1009.8
20260503231025 29 61 6.4 16.1 0.00 0.00 0.00 39 1009.9
20260503230526 28 49 3.2 19.3 0.00 0.00 0.00 43 1010.0
20260503230041 28 336 8.0 19.3 0.00 0.00 0.00 40 1010.0
20260503225525 28 322 8.0 22.5 0.00 0.00 0.00 41 1010.1
20260503225025 28 335 12.9 22.5 0.00 0.00 0.00 41 1010.2
20260503224535 28 321 9.7 22.5 0.00 0.00 0.00 40 1010.2
20260503224025 28 346 11.3 22.5 0.00 0.00 0.00 41 1010.3
20260503223528 28 335 11.3 19.3 0.00 0.00 0.00 41 1010.4
20260503223044 28 294 11.3 19.3 0.00 0.00 0.00 42 1010.6
20260503222526 28 326 11.3 17.7 0.00 0.00 0.00 42 1010.7
20260503222025 28 346 6.4 19.3 0.00 0.00 0.00 44 1010.8
20260503221551 27 338 11.3 20.9 0.00 0.00 0.00 41 1010.8
20260503221026 27 13 11.3 20.9 0.00 0.00 0.00 45 1010.9
20260503220528 28 336 6.4 16.1 0.00 0.00 0.00 42 1010.9
20260503220043 27 24 8.0 16.1 0.00 0.00 0.00 46 1011.0
20260503215526 27 55 6.4 20.9 0.00 0.00 0.00 45 1011.1
20260503215025 27 19 8.0 22.5 0.00 0.00 0.00 44 1011.2
20260503214540 27 327 9.7 22.5 0.00 0.00 0.00 44 1011.3
20260503214025 27 316 4.8 16.1 0.00 0.00 0.00 44 1011.3
20260503213525 27 121 3.2 20.9 0.00 0.00 0.00 47 1011.4
20260503213040 27 343 8.0 20.9 0.00 0.00 0.00 46 1011.4
20260503212525 27 29 9.7 20.9 0.00 0.00 0.00 43 1011.5
20260503212026 27 14 9.7 25.7 0.00 0.00 0.00 46 1011.5
20260503211539 27 34 9.7 25.7 0.00 0.00 0.00 44 1011.5
20260503211029 26 19 14.5 25.7 0.00 0.00 0.00 44 1011.6
20260503210529 27 22 9.7 22.5 0.00 0.00 0.00 47 1011.6
20260503210045 27 350 4.8 19.3 0.00 0.00 0.00 46 1011.7
20260503205523 26 349 4.8 19.3 0.00 0.00 0.00 50 1011.7
20260503205026 26 38 9.7 17.7 0.00 0.00 0.00 45 1011.7
20260503204544 26 15 4.8 17.7 0.00 0.00 0.00 48 1011.9
20260503204026 26 38 6.4 19.3 0.00 0.00 0.00 49 1011.8
20260503203530 26 309 9.7 22.5 0.00 0.00 0.00 48 1012.0
20260503203041 26 110 8.0 22.5 0.00 0.00 0.00 50 1012.0
20260503202526 26 42 11.3 22.5 0.00 0.00 0.00 47 1012.0
20260503202026 26 19 6.4 22.5 0.00 0.00 0.00 45 1012.1
20260503201541 26 309 6.4 22.5 0.00 0.00 0.00 49 1012.1
20260503201025 26 5 11.3 22.5 0.00 0.00 0.00 45 1012.2
20260503200525 26 19 6.4 22.5 0.00 0.00 0.00 49 1012.3
20260503200041 26 128 4.8 22.5 0.00 0.00 0.00 49 1012.4
20260503195526 25 303 8.0 22.5 0.00 0.00 0.00 47 1012.5
20260503195029 26 155 4.8 12.9 0.00 0.00 0.00 48 1012.6
20260503194542 25 107 4.8 12.9 0.00 0.00 0.00 52 1012.7
20260503194022 25 12 6.4 20.9 0.00 0.00 0.00 51 1012.8
20260503193528 25 68 8.0 20.9 0.00 0.00 0.00 51 1012.9
20260503193044 25 0 3.2 19.3 0.00 0.00 0.00 52 1013.0
20260503192523 25 333 6.4 19.3 0.00 0.00 0.00 52 1013.1
20260503192025 25 50 8.0 17.7 0.00 0.00 0.00 53 1013.2
20260503191542 24 31 6.4 17.7 0.00 0.00 0.00 53 1013.2
20260503191027 24 321 11.3 17.7 0.00 0.00 0.00 53 1013.2
20260503190524 24 351 6.4 17.7 0.00 0.00 0.00 55 1013.2
20260503190042 23 307 8.0 19.3 0.00 0.00 0.00 56 1013.3
20260503185524 24 342 6.4 19.3 0.00 0.00 0.00 52 1013.2
20260503185024 23 14 6.4 19.3 0.00 0.00 0.00 53 1013.3
20260503184540 23 73 8.0 19.3 0.00 0.00 0.00 56 1013.4
20260503184025 23 133 6.4 19.3 0.00 0.00 0.00 54 1013.4
20260503183525 23 22 6.4 16.1 0.00 0.00 0.00 56 1013.5
20260503183056 23 342 6.4 16.1 0.00 0.00 0.00 58 1013.5
20260503182525 23 71 6.4 19.3 0.00 0.00 0.00 57 1013.6
20260503182027 22 9 6.4 20.9 0.00 0.00 0.00 55 1013.6
20260503181554 22 316 6.4 20.9 0.00 0.00 0.00 56 1013.8
20260503181025 22 26 11.3 20.9 0.00 0.00 0.00 56 1013.7
20260503180525 22 333 8.0 20.9 0.00 0.00 0.00 57 1013.8
20260503180038 22 10 8.0 20.9 0.00 0.00 0.00 57 1013.9
20260503175525 22 339 9.7 20.9 0.00 0.00 0.00 56 1013.8
20260503175025 22 32 9.7 20.9 0.00 0.00 0.00 57 1013.9
20260503174543 21 327 14.5 20.9 0.00 0.00 0.00 58 1013.9
20260503174025 21 17 11.3 20.9 0.00 0.00 0.00 57 1013.9
20260503173525 21 322 11.3 20.9 0.00 0.00 0.00 58 1013.9
20260503173050 21 349 9.7 19.3 0.00 0.00 0.00 60 1013.9
20260503172529 21 40 8.0 19.3 0.00 0.00 0.00 60 1014.0
20260503172026 21 333 6.4 16.1 0.00 0.00 0.00 60 1013.9
20260503171542 21 28 6.4 20.9 0.00 0.00 0.00 62 1013.9
20260503171025 20 50 8.0 22.5 0.00 0.00 0.00 60 1014.1
20260503170525 20 321 11.3 22.5 0.00 0.00 0.00 63 1014.0
20260503150525 13 19 3.2 8.0 0.00 0.00 0.00 88 1014.4
20260503131028 7 0 0.0 1.6 0.00 0.00 0.00 97 1013.9
20260503130524 7 0 0.0 1.6 0.00 0.00 0.00 97 1013.8
20260503110526 8 0 0.0 1.6 0.00 0.00 0.00 96 1014.2
20260503081544 10 0 0.0 0.0 0.00 0.00 0.00 93 1014.5
20260503081026 10 0 0.0 0.0 0.00 0.00 0.00 93 1014.5
20260503080526 10 0 0.0 0.0 0.00 0.00 0.00 93 1014.5
20260503072527 10 0 0.0 1.6 0.00 0.00 0.00 93 1014.6
20260503072027 10 335 0.0 1.6 0.00 0.00 0.00 92 1014.7
20260503071541 10 0 0.0 1.6 0.00 0.00 0.00 92 1014.7
20260503071026 11 0 0.0 1.6 0.00 0.00 0.00 91 1014.6
20260503070526 11 0 0.0 1.6 0.00 0.00 0.00 92 1014.7
20260503055026 12 0 0.0 1.6 0.00 0.00 0.00 85 1014.4
20260503054543 13 0 0.0 0.0 0.00 0.00 0.00 85 1014.4
20260503054026 13 0 0.0 1.6 0.00 0.00 0.00 84 1014.4
20260503053526 13 0 0.0 1.6 0.00 0.00 0.00 82 1014.5
20260503053040 14 63 0.0 3.2 0.00 0.00 0.00 81 1014.5
20260503052528 14 63 0.0 3.2 0.00 0.00 0.00 79 1014.5
20260503052026 15 46 1.6 3.2 0.00 0.00 0.00 79 1014.5
20260503051548 15 11 1.6 3.2 0.00 0.00 0.00 78 1014.4
20260503051026 15 36 1.6 3.2 0.00 0.00 0.00 76 1014.4
20260503050526 15 49 1.6 3.2 0.00 0.00 0.00 76 1014.4
20260503050045 15 52 1.6 3.2 0.00 0.00 0.00 76 1014.4
20260503045526 15 49 1.6 4.8 0.00 0.00 0.00 76 1014.3
20260503045028 15 46 1.6 4.8 0.00 0.00 0.00 77 1014.2
20260503044543 15 26 1.6 3.2 0.00 0.00 0.00 77 1014.2
20260503044025 15 28 1.6 4.8 0.00 0.00 0.00 77 1014.2
20260503043525 16 13 1.6 4.8 0.00 0.00 0.00 76 1014.1
20260503043044 16 19 1.6 1.6 0.00 0.00 0.00 76 1014.1
20260503042526 16 30 0.0 3.2 0.00 0.00 0.00 75 1014.0
20260503042026 16 26 0.0 3.2 0.00 0.00 0.00 74 1014.0
20260503041540 16 22 1.6 3.2 0.00 0.00 0.00 72 1014.0
20260503041029 17 22 0.0 3.2 0.00 0.00 0.00 71 1013.9